[[{"header":{"parameterUnit":"m.s-1","parameterCategory":1,"la1":30.2991,"la2":30.254,"lo1":-89.0895,"lo2":-89.0444,"dy":0.0017,"dx":0.0017,"nx":28,"ny":28,"refTime":"2023-08-09T03:00:00:Z","depth":0,"parameterNumber":2,"parameterNumberName":"U-component_of_WINDS"},"data":[0,0,0,0,0,0,0,0,0,0,0,0,0,0,0,0,0,0,0,0,0,0,0,0,0,0,0,0,0,0,0,0,0,0,0,0,0,0,0,0,0,0,0,0,0,0,0,0,0,0,0,0,0,0,0,0,0,0,2.3887,2.3887,0,2.3846,2.3845,2.3845,2.3853,2.3854,2.3855,2.3855,2.3813,2.3811,2.3809,0,0,0,0,0,0,0,0,0,0,0,0,0,2.3975,2.3974,2.3887,2.3887,2.3886,2.3846,2.3845,2.3845,2.3853,2.3854,2.3855,2.3856,2.3814,2.3811,2.3809,0,0,0,0,0,0,0,0,0,0,0,0,0,2.3936,2.3973,2.3887,2.3885,2.3885,2.3846,2.3845,2.3845,2.3853,2.3854,2.3855,2.3856,2.3814,2.3812,2.3809,2.3769,0,0,2.38,2.3799,0,0,0,0,0,0,0,0,2.3938,2.3933,2.3886,2.3886,2.3885,2.3856,2.3861,2.3819,2.3853,2.3865,2.3855,2.3857,2.3826,2.3823,2.3812,2.3767,2.3765,2.38,2.3799,2.3797,2.3797,0,0,0,0,0,0,0,2.3941,2.3934,2.3871,2.3886,2.3885,2.3887,2.3883,2.3853,2.384,2.3864,2.3864,2.386,2.3826,2.3815,2.3811,2.3765,2.38,2.3798,2.3796,2.3795,2.3688,2.3687,0,0,0,0,0,0,2.3944,2.3937,2.3872,2.387,2.3915,2.3885,2.388,2.3864,2.384,2.3838,2.3859,2.386,2.3819,2.3815,2.381,2.3764,2.3797,2.3795,2.3793,2.3689,2.3688,2.3687,0,0,0,0,0,0,2.3946,2.3938,2.3874,2.3903,2.3895,2.3882,2.3864,2.3863,2.3851,2.3836,2.3834,2.3849,2.382,2.3814,2.378,2.3762,2.3794,2.3791,2.3691,2.3689,2.3687,2.3669,0,0,0,0,0,0,2.3948,2.3939,2.3923,2.3903,2.3894,2.3844,2.3863,2.3861,2.3847,2.3848,2.3827,2.3824,2.382,2.3784,2.3777,2.3759,2.3789,2.3692,2.369,2.3688,2.3672,2.3667,2.3664,0,0,0,0,0,2.3952,2.3919,2.3922,2.3914,2.3873,2.3842,2.3837,2.3833,2.3845,2.383,2.382,2.3825,2.3765,2.378,2.3773,2.3753,2.3693,2.3691,2.3688,2.3673,2.3668,2.3664,0,0,0,0,0,0,2.3936,2.3916,2.3919,2.3879,2.3863,2.3844,2.3824,2.3827,2.3807,2.3809,2.3805,2.38,2.3766,2.3757,2.3774,2.3715,2.3731,2.3727,2.3723,2.3718,2.3714,2.3717,2.3787,0,0,0,0,0,2.3928,2.3904,2.3888,2.3854,2.3846,2.3837,2.3823,2.3822,2.3804,2.3797,2.3785,2.3768,2.3746,2.3731,2.371,2.3671,2.3667,2.3654,2.365,2.3647,2.3643,2.3624,2.3618,2.3678,2.3678,2.3678,0,0,2.3911,2.3897,2.3882,2.3851,2.3838,2.3815,2.383,2.3804,2.3787,2.3793,2.3761,2.3752,2.3733,2.3697,2.368,2.3688,2.3626,2.3643,2.3641,2.3639,2.3621,2.3615,2.361,2.3676,2.3676,2.3677,0,0,2.3868,2.3854,2.3826,2.3813,2.3794,2.3789,2.3782,2.3763,2.3758,2.3726,2.3731,2.3711,2.3672,2.3659,2.3647,2.3603,2.3608,2.3596,2.3575,2.3557,2.3552,2.3548,2.3534,2.3528,2.3593,2.3593,2.3593,0,2.3849,2.3813,2.381,2.3785,2.3772,2.3778,2.375,2.3737,2.3712,2.3703,2.3712,2.3666,2.3653,2.3615,2.3605,2.3595,2.3588,2.3598,2.3553,2.3549,2.3545,2.3531,2.3526,2.3592,2.3592,2.3592,2.3592,0,2.3792,2.3767,2.3746,2.3723,2.3708,2.3681,2.3675,2.3661,2.3662,2.3655,2.3624,2.361,2.3587,2.3578,2.3577,2.3541,2.3546,2.3554,2.357,2.3538,2.3525,2.352,2.359,2.359,2.3591,2.3591,0,0,2.3735,2.3713,2.3705,2.3696,2.3677,2.3658,2.3633,2.3611,2.3599,2.3582,2.3562,2.353,2.3539,2.3526,2.3525,2.3508,2.3476,2.3519,2.3518,2.3512,2.3437,2.3431,2.3425,2.348,2.3479,2.3478,2.3439,0,2.3691,2.3645,2.3644,2.3603,2.3582,2.3589,2.3567,2.3554,2.3548,2.353,2.3524,2.3502,2.3514,2.3507,2.3491,2.3484,2.3461,2.3486,2.3461,2.346,2.3466,2.3418,2.3411,2.3374,2.3433,2.3433,2.3432,0,2.3632,2.3615,2.3573,2.3559,2.355,2.3531,2.3512,2.3494,2.348,2.3477,2.3465,2.3467,2.3442,2.346,2.3426,2.3444,2.3434,2.3429,2.3428,2.3425,2.3444,2.3414,2.3363,2.3357,2.3424,2.3424,2.3425,0,2.3597,2.3563,2.3534,2.3526,2.3509,2.3496,2.3488,2.3475,2.3463,2.3447,2.344,2.3421,2.341,2.3396,2.3394,2.3407,2.3362,2.3378,2.3359,2.3359,2.3349,2.335,2.3295,2.3342,2.3342,2.3342,2.3342,0,2.3547,2.3521,2.3518,2.35,2.3472,2.3472,2.3444,2.3438,2.3427,2.3408,2.3413,2.3396,2.3394,2.3377,2.3375,2.3349,2.3344,2.3342,2.3342,2.3342,2.3342,2.3335,2.3337,2.3341,2.3341,2.3341,2.3342,0,2.3502,2.3499,2.3468,2.3456,2.3452,2.3432,2.3422,2.3406,2.3402,2.3379,2.3374,2.3368,2.3348,2.3345,2.3321,2.332,2.3289,2.3291,2.3294,2.3294,2.3276,2.3278,2.3215,2.3208,2.3259,2.3259,2.3258,0,2.347,2.3451,2.3438,2.3427,2.3419,2.34,2.3389,2.3389,2.3376,2.3361,2.3347,2.3328,2.3312,2.3281,2.3274,2.3257,2.3259,2.3239,2.3257,2.3258,2.326,2.3261,2.326,2.3235,2.3234,2.3234,2.3233,0,2.3416,2.3416,2.3399,2.3383,2.3369,2.3356,2.3344,2.3334,2.3333,2.3319,2.33,2.3288,2.3265,2.3247,2.323,2.3223,2.3228,2.3228,2.3223,2.3223,2.3225,2.3225,2.3285,2.3229,2.323,2.323,2.323,2.323,2.3377,2.3361,2.335,2.3332,2.3323,2.3313,2.3297,2.3293,2.3277,2.3258,2.326,2.3239,2.3228,2.3206,2.3199,2.3183,2.3189,2.3182,2.318,2.3178,2.3177,2.3228,2.318,2.318,2.318,2.318,2.318,0,2.3323,2.3318,2.3301,2.3285,2.3271,2.3279,2.3266,2.3254,2.3236,2.3226,2.3211,2.319,2.3173,2.3167,2.3151,2.3139,2.3141,2.3135,2.3136,2.3135,2.3171,2.3177,2.3134,2.3134,2.3134,2.3134,2.3134,2.3134,2.3294,2.3268,2.3267,2.3238,2.3233,2.3213,2.3205,2.3196,2.3188,2.3164,2.3151,2.3147,2.3139,2.3123,2.3108,2.3107,2.3101,2.3093,2.3093,2.3127,2.3132,2.3136,2.3142,2.3092,2.3092,2.3058,2.3058,2.3058]},{"header":{"parameterUnit":"m.s-1","parameterCategory":1,"la1":30.2991,"la2":30.254,"lo1":-89.0895,"lo2":-89.0444,"dy":0.0017,"dx":0.0017,"nx":28,"ny":28,"refTime":"2023-08-09T03:00:00:Z","depth":0,"parameterNumber":3,"parameterNumberName":"V-component_of_WINDS"},"data":[0,0,0,0,0,0,0,0,0,0,0,0,0,0,0,0,0,0,0,0,0,0,0,0,0,0,0,0,0,0,0,0,0,0,0,0,0,0,0,0,0,0,0,0,0,0,0,0,0,0,0,0,0,0,0,0,0,0,4.3366,4.3368,0,4.3562,4.3564,4.3566,4.3652,4.3652,4.3652,4.3651,4.3846,4.3851,4.3856,0,0,0,0,0,0,0,0,0,0,0,0,0,4.306,4.3065,4.3365,4.3368,4.337,4.3561,4.3564,4.3567,4.3652,4.3652,4.3651,4.3651,4.3844,4.385,4.3857,0,0,0,0,0,0,0,0,0,0,0,0,0,4.3218,4.3067,4.3365,4.3436,4.3445,4.3561,4.3564,4.3567,4.3652,4.3652,4.3651,4.3651,4.3842,4.385,4.3858,4.3915,0,0,4.3882,4.3886,0,0,0,0,0,0,0,0,4.3209,4.3229,4.3423,4.3432,4.3441,4.3582,4.3528,4.3684,4.3652,4.3573,4.3651,4.3651,4.3758,4.3773,4.381,4.3925,4.3933,4.3883,4.3888,4.3891,4.3894,0,0,0,0,0,0,0,4.3198,4.3221,4.3443,4.3426,4.3437,4.3457,4.3479,4.3557,4.3665,4.358,4.3587,4.3609,4.3762,4.3802,4.3815,4.3936,4.3883,4.389,4.3895,4.3898,4.4108,4.4109,0,0,0,0,0,0,4.3176,4.3211,4.3437,4.3449,4.3322,4.3462,4.3487,4.3537,4.3665,4.3684,4.3609,4.3612,4.3788,4.3806,4.3822,4.39,4.3891,4.3899,4.3904,4.4107,4.4108,4.4109,0,0,0,0,0,0,4.3169,4.3195,4.3429,4.3332,4.3363,4.3468,4.3524,4.3541,4.3581,4.3687,4.3706,4.363,4.3789,4.3811,4.3892,4.3908,4.3903,4.391,4.4107,4.4108,4.4109,4.4053,0,0,0,0,0,0,4.316,4.3192,4.3217,4.3332,4.3368,4.3497,4.3525,4.3545,4.3596,4.3602,4.3712,4.3729,4.379,4.388,4.39,4.3919,4.3916,4.4106,4.4107,4.4108,4.4054,4.4052,4.4051,0,0,0,0,0,4.3149,4.3192,4.3217,4.3244,4.3401,4.3498,4.3518,4.3589,4.3596,4.3621,4.3689,4.3726,4.3902,4.3887,4.3911,4.3932,4.4105,4.4107,4.4108,4.4055,4.4053,4.4051,0,0,0,0,0,0,4.3073,4.3208,4.3238,4.332,4.3397,4.3512,4.3545,4.3584,4.3659,4.3661,4.3744,4.3768,4.3842,4.3895,4.3876,4.3995,4.4007,4.4013,4.3958,4.3957,4.3955,4.3941,4.3923,0,0,0,0,0,4.3066,4.3135,4.3249,4.331,4.3347,4.3439,4.3484,4.3532,4.3614,4.3647,4.3721,4.3797,4.387,4.3916,4.3989,4.4062,4.4087,4.4088,4.4086,4.4084,4.4089,4.4132,4.4134,4.4114,4.4114,4.4114,0,0,4.3052,4.3134,4.3172,4.3297,4.3362,4.343,4.3466,4.3536,4.3587,4.3657,4.3739,4.3796,4.3886,4.3964,4.4002,4.401,4.41,4.4087,4.4084,4.409,4.4134,4.4136,4.4137,4.4115,4.4115,4.4115,0,0,4.3062,4.3131,4.319,4.3255,4.3355,4.3416,4.343,4.354,4.3581,4.3665,4.3719,4.3779,4.3903,4.3966,4.4014,4.4048,4.4085,4.4069,4.406,4.4101,4.4103,4.4104,4.4117,4.412,4.4073,4.4073,4.4073,0,4.3031,4.3138,4.3215,4.3283,4.3336,4.3404,4.3464,4.3523,4.364,4.3674,4.3682,4.384,4.3906,4.4,4.4008,4.4045,4.4063,4.4057,4.4097,4.4099,4.4102,4.4115,4.4119,4.4071,4.4071,4.4071,4.4071,0,4.3096,4.3169,4.3204,4.3318,4.3375,4.3438,4.3524,4.3571,4.3615,4.3674,4.3759,4.384,4.3932,4.3957,4.3999,4.4057,4.4059,4.4081,4.4094,4.41,4.4114,4.4119,4.4067,4.4068,4.4069,4.4069,0,0,4.3063,4.322,4.3232,4.3285,4.3399,4.3456,4.3522,4.3614,4.3653,4.3731,4.3788,4.3892,4.3913,4.3967,4.4017,4.4053,4.4075,4.407,4.4074,4.4069,4.4144,4.4128,4.4132,4.41,4.4101,4.4102,4.4137,0,4.3089,4.3213,4.3284,4.3378,4.3446,4.3512,4.357,4.3645,4.3703,4.3768,4.383,4.3903,4.3925,4.3959,4.3997,4.4064,4.4091,4.4063,4.4153,4.4155,4.4129,4.414,4.4122,4.4151,4.4143,4.4144,4.4144,0,4.3136,4.3215,4.3316,4.3424,4.3456,4.3506,4.3596,4.3658,4.3744,4.3783,4.3845,4.3895,4.3965,4.3973,4.4071,4.405,4.4091,4.413,4.4132,4.4144,4.415,4.4152,4.4162,4.4166,4.4153,4.4153,4.4152,0,4.3103,4.3234,4.3313,4.3356,4.3483,4.3517,4.3571,4.3658,4.3709,4.3786,4.382,4.3903,4.3949,4.4012,4.4083,4.4082,4.4174,4.4187,4.4208,4.4206,4.4225,4.4223,4.4242,4.425,4.425,4.425,4.425,0,4.3124,4.3184,4.33,4.3348,4.3416,4.3496,4.3561,4.362,4.3697,4.3756,4.3817,4.3871,4.3961,4.4026,4.4081,4.4155,4.4174,4.4207,4.4222,4.4203,4.4199,4.4231,4.4231,4.4251,4.4251,4.4251,4.425,0,4.3099,4.3179,4.3269,4.3383,4.3413,4.3458,4.3555,4.3603,4.3664,4.3738,4.376,4.3855,4.3935,4.4012,4.4117,4.4155,4.4228,4.4246,4.4199,4.4207,4.4224,4.4222,4.4266,4.4276,4.4275,4.4275,4.4275,0,4.3108,4.3156,4.3276,4.3321,4.3375,4.3447,4.3499,4.358,4.3632,4.3734,4.377,4.3855,4.3927,4.405,4.4128,4.4209,4.423,4.424,4.4242,4.4222,4.4231,4.4228,4.4233,4.4238,4.4237,4.4237,4.4237,0,4.3116,4.3154,4.3228,4.3317,4.3378,4.3451,4.3526,4.3559,4.3653,4.3708,4.3792,4.3848,4.3957,4.404,4.4131,4.4185,4.4226,4.4235,4.4245,4.4226,4.4197,4.4214,4.4195,4.4234,4.4234,4.4235,4.4235,4.4235,4.3109,4.3155,4.3247,4.3328,4.3393,4.3461,4.3513,4.3581,4.3652,4.3749,4.3792,4.3876,4.3961,4.4088,4.4141,4.4207,4.4217,4.423,4.4234,4.4236,4.4232,4.4186,4.4224,4.4224,4.4224,4.4224,4.4224,0,4.3121,4.3183,4.3257,4.3361,4.3424,4.346,4.3544,4.3595,4.3669,4.3746,4.3816,4.3912,4.3993,4.4077,4.4162,4.4199,4.422,4.4218,4.4217,4.4229,4.4218,4.4202,4.42,4.42,4.42,4.42,4.42,4.42,4.3134,4.3214,4.3262,4.3374,4.3436,4.3521,4.3566,4.3629,4.3692,4.3796,4.3865,4.392,4.4,4.4091,4.4167,4.4189,4.4218,4.4211,4.4239,4.4228,4.4229,4.4231,4.4216,4.4217,4.4217,4.4244,4.4245,4.4245]}]]